This demonstration page uses our WeatherBlox Daily Observations layout. Learn more.

Left ArrowRight Arrow

Hourly Observations for January 16, 2019

Temp ( °F °C ) Dew Point ( °F °C ) Humidity (%) Winds ( mph kmh ) Pressure ( in mb ) Visibility ( mi km ) Precip ( " mm )
12:53 am 00:53 Clear 31 -0.6 29 -1.7 92 92 Calm 30.25 1025 10 16 0.00 0.00
1:53 am 01:53 Clear 31 -0.6 29 -1.7 92 92 Calm 30.25 1024 10 16 0.00 0.00
2:53 am 02:53 Clear 31 -0.6 29 -1.7 92 92 NW 3 6 30.26 1025 10 16 0.00 0.00
3:53 am 03:53 Clear 31 -0.6 29 -1.7 92 92 Calm 30.27 1025 8 13 0.00 0.00
4:53 am 04:53 Clear 30 -1.1 29 -1.7 96 96 Calm 30.26 1025 7 11 0.00 0.00
5:18 am 05:18 Mostly Clear 30 -1.1 29 -1.7 96 96 Calm 30.27 1025 7 11 0.00 0.00
5:53 am 05:53 Mostly Cloudy 30 -1.1 29 -1.7 96 96 Calm 30.26 1025 7 11 0.00 0.00
6:53 am 06:53 Cloudy 30 -1.1 29 -1.7 96 96 NNW 3 6 30.28 1025 7 11 0.00 0.00
7:53 am 07:53 Cloudy with Mist and Fog 31 -0.6 29 -1.7 92 92 NNW 8 13 30.29 1026 6 10 0.00 0.00
8:53 am 08:53 Cloudy with Mist and Fog 31 -0.6 30 -1.1 96 96 NW 8 13 30.30 1026 4 6 0.00 0.00
9:53 am 09:53 Cloudy with Mist and Fog 34 1.1 32 0 92 92 NW 7 11 30.32 1027 5 8 0.00 0.00
10:38 am 10:38 Partly Cloudy 37 2.8 32 0 82 82 NNW 6 9 30.33 1027 8 13 0.00 0.00
10:53 am 10:53 Sunny 38 3.3 33 0.6 83 83 NNW 7 11 30.33 1027 10 16 0.00 0.00
11:53 am 11:53 Sunny 42 5.6 33 0.6 71 71 NW 6 9 30.32 1027 10 16 0.00 0.00
12:53 pm 12:53 Sunny 46 7.8 34 1.1 63 63 NW 7 11 30.28 1025 10 16 0.00 0.00
1:53 pm 13:53 Sunny 49 9.4 35 1.7 59 59 W 7 11 30.25 1024 10 16 0.00 0.00
2:53 pm 14:53 Sunny 51 10.6 34 1.1 52 52 VRB 5 7 30.24 1024 10 16 0.00 0.00
3:53 pm 15:53 Sunny 53 11.7 32 0 45 45 NNW 8 13 30.24 1024 10 16 0.00 0.00
4:53 pm 16:53 Sunny 52 11.1 31 -0.6 45 45 NW 7 11 30.24 1024 10 16 0.00 0.00
5:53 pm 17:53 Sunny 48 8.9 32 0 54 54 N 5 7 30.25 1024 10 16 0.00 0.00
6:53 pm 18:53 Clear 45 7.2 34 1.1 66 66 Calm 30.26 1025 10 16 0.00 0.00
7:53 pm 19:53 Clear 40 4.4 33 0.6 77 77 Calm 30.27 1025 10 16 0.00 0.00
8:53 pm 20:53 Clear 41 5 33 0.6 73 73 ENE 3 6 30.27 1025 10 16 0.00 0.00
9:53 pm 21:53 Clear 37 2.8 33 0.6 86 86 Calm 30.27 1025 10 16 0.00 0.00
10:53 pm 22:53 Clear 35 1.7 34 1.1 96 96 Calm 30.28 1025 10 16 0.00 0.00
11:53 pm 23:53 Clear 34 1.1 33 0.6 97 97 Calm 30.27 1025 10 16 0.00 0.00

Powered by AerisWeather